Location: Atherton
(17.2661°S, 145.4859°E)
Time: 22:42:47
(UTC+10:00)

Hubble Space Telescope - Pass Details

Date: 24 May 2025
Orbit: 488 x 491 km, 28.5° (Epoch: 15 June)

Event Time Altitude Azimuth Distance (km) Brightness Sun altitude
Rises 19:56:37 0° 251° (WSW) 2,562 5.0 -29.3°
Reaches altitude 10° 19:58:52 10° 255° (WSW) 1,679 4.0 -29.8°
Enters shadow 20:00:19 21° 262° (W) 1,140 3.0 -30.1°
